EN

Hourly Weather Trofimovka

Today, 9 May, Sunday

Time Temperature Precipitation Wind Pressure Humidity
00:00 +12°C° 0.7 mm 5 mps 736 mmHg 91%
01:00 +12°C° 0 mm 5 mps 736 mmHg 93%
02:00 +11°C° 0 mm 4 mps 736 mmHg 95%
03:00 +11°C° 0 mm 3 mps 736 mmHg 97%
04:00 +11°C° 0.6 mm 3 mps 736 mmHg 97%
05:00 +11°C° 0.6 mm 3 mps 735 mmHg 97%
06:00 +11°C° 0.6 mm 3 mps 735 mmHg 98%
07:00 +11°C° 1.1 mm 4 mps 735 mmHg 97%
08:00 +11°C° 1.1 mm 4 mps 735 mmHg 97%
09:00 +10°C° 0 mm 5 mps 736 mmHg 96%
10:00 +10°C° 1.1 mm 4 mps 736 mmHg 96%
11:00 +8°C° 1.1 mm 4 mps 736 mmHg 95%
12:00 +7°C° 1.1 mm 4 mps 737 mmHg 94%
13:00 +7°C° 1.5 mm 4 mps 737 mmHg 93%
14:00 +8°C° 1.5 mm 3 mps 738 mmHg 92%
15:00 +8°C° 0 mm 3 mps 738 mmHg 91%
16:00 +7°C° 0.1 mm 4 mps 739 mmHg 91%
17:00 +7°C° 0.1 mm 4 mps 740 mmHg 92%
18:00 +6°C° 0.1 mm 5 mps 740 mmHg 93%
19:00 +6°C° 0 mm 5 mps 741 mmHg 94%
20:00 +5°C° 0 mm 5 mps 741 mmHg 94%
21:00 +3°C° 0 mm 5 mps 742 mmHg 95%
22:00 +3°C° 0.1 mm 5 mps 742 mmHg 95%
23:00 +3°C° 0.1 mm 5 mps 742 mmHg 96%

Tomorrow, 10 May, Monday

Time Temperature Precipitation Wind Pressure Humidity
00:00 +4°C° 0.1 mm 4 mps 742 mmHg 96%
01:00 +3°C° 0 mm 5 mps 743 mmHg 96%
02:00 +3°C° 0 mm 5 mps 743 mmHg 96%
03:00 +3°C° 0 mm 5 mps 743 mmHg 96%
04:00 +3°C° 0 mm 5 mps 743 mmHg 96%
05:00 +3°C° 0 mm 6 mps 743 mmHg 96%
06:00 +3°C° 0 mm 6 mps 743 mmHg 96%
07:00 +3°C° 0.2 mm 6 mps 743 mmHg 96%
08:00 +4°C° 0.2 mm 7 mps 744 mmHg 95%
09:00 +4°C° 0.2 mm 7 mps 744 mmHg 95%
10:00 +4°C° 0.3 mm 8 mps 744 mmHg 95%
11:00 +4°C° 0.3 mm 8 mps 744 mmHg 94%
12:00 +5°C° 0.3 mm 9 mps 744 mmHg 94%
13:00 +5°C° 0.1 mm 9 mps 744 mmHg 93%
14:00 +6°C° 0.1 mm 9 mps 744 mmHg 93%
15:00 +7°C° 0.1 mm 9 mps 744 mmHg 92%
16:00 +7°C° 0 mm 9 mps 744 mmHg 92%
17:00 +8°C° 0 mm 9 mps 743 mmHg 91%
18:00 +8°C° 0 mm 10 mps 743 mmHg 91%
19:00 +8°C° 0.1 mm 9 mps 744 mmHg 91%
20:00 +9°C° 0.1 mm 8 mps 744 mmHg 91%
21:00 +10°C° 0.1 mm 8 mps 744 mmHg 91%
22:00 +10°C° 0.1 mm 8 mps 744 mmHg 92%
23:00 +10°C° 0.1 mm 7 mps 744 mmHg 92%

Day after tomorrow, 11 May, Tuesday

Time Temperature Precipitation Wind Pressure Humidity
00:00 +10°C° 0.1 mm 7 mps 744 mmHg 93%
01:00 +10°C° 0 mm 7 mps 744 mmHg 92%
02:00 +10°C° 0 mm 7 mps 744 mmHg 92%
03:00 +11°C° 0 mm 7 mps 744 mmHg 91%
04:00 +11°C° 0 mm 7 mps 744 mmHg 90%
05:00 +11°C° 0 mm 7 mps 744 mmHg 90%
06:00 +11°C° 0 mm 6 mps 744 mmHg 89%
07:00 +10°C° 0.2 mm 6 mps 745 mmHg 89%
08:00 +10°C° 0.2 mm 5 mps 746 mmHg 90%
09:00 +10°C° 0.2 mm 4 mps 747 mmHg 90%
10:00 +9°C° 0 mm 5 mps 747 mmHg 86%
11:00 +10°C° 0 mm 5 mps 748 mmHg 81%
12:00 +10°C° 0 mm 5 mps 748 mmHg 77%
13:00 +13°C° 0 mm 5 mps 749 mmHg 69%
14:00 +14°C° 0 mm 5 mps 749 mmHg 61%
15:00 +15°C° 0 mm 5 mps 749 mmHg 52%
16:00 +15°C° 0 mm 5 mps 749 mmHg 57%
17:00 +14°C° 0 mm 4 mps 750 mmHg 61%
18:00 +14°C° 0 mm 4 mps 750 mmHg 66%
19:00 +12°C° 0 mm 3 mps 750 mmHg 71%
20:00 +12°C° 0 mm 2 mps 751 mmHg 76%
21:00 +9°C° 0 mm 2 mps 751 mmHg 81%
22:00 +9°C° 0 mm 2 mps 751 mmHg 81%
23:00 +9°C° 0 mm 2 mps 751 mmHg 81%

12 May, Wednesday

Time Temperature Precipitation Wind Pressure Humidity
00:00 +8°C° 0 mm 2 mps 751 mmHg 81%
01:00 +8°C° 0 mm 2 mps 751 mmHg 82%
02:00 +8°C° 0 mm 3 mps 750 mmHg 83%
03:00 +8°C° 0 mm 3 mps 750 mmHg 85%
04:00 +9°C° 0.2 mm 3 mps 749 mmHg 88%
05:00 +9°C° 0.2 mm 3 mps 749 mmHg 91%
06:00 +9°C° 0.2 mm 3 mps 749 mmHg 94%
07:00 +8°C° 0.9 mm 4 mps 748 mmHg 95%
08:00 +8°C° 0.9 mm 4 mps 747 mmHg 96%
09:00 +10°C° 0.9 mm 4 mps 747 mmHg 97%
10:00 +10°C° 0.4 mm 5 mps 747 mmHg 95%
11:00 +11°C° 0.4 mm 6 mps 746 mmHg 92%
12:00 +13°C° 0.4 mm 6 mps 746 mmHg 89%
13:00 +13°C° 0.1 mm 5 mps 747 mmHg 89%
14:00 +12°C° 0.1 mm 4 mps 747 mmHg 88%
15:00 +12°C° 0.1 mm 3 mps 747 mmHg 87%
16:00 +13°C° 0 mm 3 mps 748 mmHg 85%
17:00 +14°C° 0 mm 2 mps 748 mmHg 82%
18:00 +15°C° 0 mm 2 mps 748 mmHg 79%
19:00 +14°C° 0 mm 2 mps 748 mmHg 82%
20:00 +13°C° 0 mm 2 mps 748 mmHg 86%
21:00 +11°C° 0 mm 3 mps 748 mmHg 89%
22:00 +11°C° 0 mm 3 mps 747 mmHg 91%
23:00 +12°C° 0 mm 3 mps 747 mmHg 93%

13 May, Thursday

Time Temperature Precipitation Wind Pressure Humidity
00:00 +12°C° 0 mm 3 mps 747 mmHg 95%
01:00 +12°C° 0.1 mm 3 mps 747 mmHg 95%
02:00 +12°C° 0.1 mm 3 mps 747 mmHg 94%
03:00 +12°C° 0.1 mm 3 mps 746 mmHg 94%
04:00 +12°C° 0.1 mm 3 mps 746 mmHg 92%
05:00 +13°C° 0.1 mm 4 mps 746 mmHg 90%
06:00 +13°C° 0.1 mm 4 mps 746 mmHg 88%
07:00 +14°C° 0 mm 4 mps 746 mmHg 83%
08:00 +15°C° 0 mm 5 mps 746 mmHg 79%
09:00 +16°C° 0 mm 5 mps 746 mmHg 74%
10:00 +17°C° 0.1 mm 5 mps 746 mmHg 75%
11:00 +18°C° 0.1 mm 4 mps 746 mmHg 75%
12:00 +19°C° 0.1 mm 4 mps 746 mmHg 76%
13:00 +20°C° 0 mm 4 mps 746 mmHg 72%
14:00 +21°C° 0 mm 4 mps 746 mmHg 69%
15:00 +22°C° 0 mm 4 mps 746 mmHg 65%
16:00 +21°C° 0.3 mm 4 mps 746 mmHg 69%
17:00 +21°C° 0.3 mm 3 mps 746 mmHg 73%
18:00 +20°C° 0.3 mm 3 mps 746 mmHg 77%
19:00 +19°C° 0 mm 3 mps 746 mmHg 81%
20:00 +18°C° 0 mm 3 mps 746 mmHg 86%
21:00 +16°C° 0 mm 3 mps 746 mmHg 90%
22:00 +16°C° 0 mm 2 mps 746 mmHg 90%
23:00 +16°C° 0 mm 2 mps 746 mmHg 90%

14 May, Friday

Time Temperature Precipitation Wind Pressure Humidity
00:00 +15°C° 0 mm 2 mps 746 mmHg 90%
01:00 +15°C° 0 mm 2 mps 746 mmHg 90%
02:00 +15°C° 0 mm 2 mps 746 mmHg 91%
03:00 +15°C° 0 mm 2 mps 746 mmHg 91%
04:00 +15°C° 0 mm 2 mps 746 mmHg 90%
05:00 +15°C° 0 mm 2 mps 746 mmHg 90%
06:00 +15°C° 0 mm 2 mps 746 mmHg 89%
07:00 +17°C° 0 mm 3 mps 746 mmHg 83%
08:00 +19°C° 0 mm 3 mps 746 mmHg 77%
09:00 +21°C° 0 mm 4 mps 746 mmHg 71%
10:00 +22°C° 0 mm 4 mps 746 mmHg 66%
11:00 +23°C° 0 mm 5 mps 746 mmHg 62%
12:00 +25°C° 0 mm 5 mps 746 mmHg 57%
13:00 +26°C° 0 mm 5 mps 746 mmHg 56%
14:00 +26°C° 0 mm 5 mps 746 mmHg 55%
15:00 +27°C° 0 mm 5 mps 746 mmHg 54%
16:00 +26°C° 0 mm 5 mps 745 mmHg 58%
17:00 +25°C° 0 mm 5 mps 745 mmHg 62%
18:00 +23°C° 0 mm 4 mps 745 mmHg 65%
19:00 +21°C° 0 mm 4 mps 745 mmHg 70%
20:00 +20°C° 0 mm 4 mps 744 mmHg 76%
21:00 +18°C° 0 mm 4 mps 744 mmHg 81%
22:00 +18°C° 0 mm 4 mps 744 mmHg 79%
23:00 +18°C° 0 mm 4 mps 744 mmHg 78%
Show more

We Need Your Consent

Meteoprog and our Service Providers may store and access personal data such as cookies, device identifiers or other similar technologies on your device and process such data to personalise content and ads, as well as provide social media features and to analyse the traffic.

  • Store and/or access information on your device

    Cookies, device identifiers or other information can be stored or accessed on your device for the purposes indicated above.

  • Personalised ads and content, ad and content measurement, audience insights, and products development

    Ads and content can be personalised based on a profile. More data can be added to better personalise ads and content. Ad and content performance can be measured. Insights about the audience who saw the ads and content can be derived. Such data can be used to develop or improve user’s experience, systems and software.

By clicking ‘I Agree’ you will allow the use of indicated cookies, device identifiers, web beacons or other similar technologies. Your settings can be changed in the browser on your device.

For certain purposes, legitimate interests may be relied on, rather than consent. You can read more about this in our Privacy and Cookie Policy.